Regional Weather Roundup
Issued by NWS Wakefield, VA

Home | Current Version | Previous Version | Graphics & Text | Print | Product List | Glossary On
Versions: 1 2 3 4 5 6 7 8 9 10 11 12 13 14 15 16 17 18 19 20 21 22 23 24 25 26 27 28 29 30 31 32 33 34 35 36 37 38 39 40 41 42 43 44 45 46 47 48 49 50
000
ASUS41 KAKQ 022215
RWRAKQ

REGIONAL WEATHER ROUNDUP
NATIONAL WEATHER SERVICE WAKEFIELD VA
600 PM EDT WED SEP 02 2015

Note: "fair" indicates few or no clouds below 12,000 feet with no
significant weather and/or obstructions to visibility. * = Denotes
station may not report precipitation (e.g., rain,snow,etc.),
thunder or fog.

VAZ042-051-052>054-056-022300-
NORTHERN VIRGINIA

CITY           SKY/WX    TMP DP  RH WIND       PRES   REMARKS
WASH NATIONAL  CLOUDY    87  68  52 W9        29.95S
DULLES         CLOUDY    83  66  56 CALM      29.97R
FORT BELVOIR   CLOUDY    77  73  88 CALM      29.94F
QUANTICO       TSTM      83  70  64 N7        29.95F
FREDERICKSBRG* CLOUDY    81  69  65 CALM      29.94F
STAFFORD*      CLOUDY    80  64  57 CALM      30.00S
WARRENTON      CLOUDY    78  71  79 W5        29.98R
CULPEPER*      LGT RAIN  76  68  76 NW6       29.99S
MANASSAS*      SUNNY     82  72  69 CALM      29.97S
LEESBURG*      CLOUDY    82  72  69 NW7       29.98S
WINCHESTER     PTSUNNY   79  70  73 SW8       30.00S
FRONT ROYAL*   CLOUDY    70  68  94 S7        30.00F
LURAY*         RAIN      66  66 100 NW5       30.03F VSB 1
$$

VAZ048-049-060>072-079>083-022300-
CENTRAL AND SOUTH CENTRAL VIRGINIA

CITY           SKY/WX    TMP DP  RH WIND       PRES   REMARKS
RICHMOND       PTSUNNY   82  71  69 SE6       29.95F
CHESTERFIELD*  FAIR      82  61  47 SE8       29.96F
PETERSBURG*    LGT RAIN  76  76 100 SW5       29.95F
HANOVER        PTSUNNY   80  70  71 NE5       29.97S
TAPPAHANNOCK*  PTSUNNY   80  67  65 CALM      29.95F
QUINTON*       FAIR      80  72  77 SE3       29.94F
CHARLOTTSVILLE CLOUDY    76  63  64 N7G18     29.99S
GORDONSVILLE*  FAIR      79  62  56 NW9G22    29.97F
ORANGE*        CLOUDY    79  64  61 W6        30.00S
LOUISA*        PTSUNNY   84  72  65 NW8       29.96S
BUMPASS*       CLOUDY    76  72  88 E6        29.97R
FARMVILLE*     PTSUNNY   82  61  48 N8        29.96R THUNDER
CREWE*         FAIR     N/A N/A N/A S3        29.95R
FORT PICKETT*  FAIR      80  70  70 CALM      29.95F
CHASE CITY*    FAIR      89  69  52 CALM      29.95F
CLARKSVILLE*   MOCLDY    88  72  58 CALM      29.94S
SOUTH HILL*    CLOUDY    75  67  75 N16G32    30.01R THUNDER
LAWRENCEVILLE* FAIR      82  75  78 CALM      29.95S
EMPORIA*       PTSUNNY   86  73  66 CALM      29.95S
$$

VAZ088>098-022300-
SOUTHEAST VIRGINIA

CITY           SKY/WX    TMP DP  RH WIND       PRES   REMARKS
NORFOLK        HVY RAIN  79  70  74 W13G21    29.97R
VIRGINIA BEACH CLOUDY    81  68  64 SW10      29.94F THUNDER
NORFOLK NAVAL  TSTM      72  66  81 NW7       29.98R
WEST POINT*    CLOUDY    83  70  63 S5        29.96F
SALUDA*        FAIR      80  72  76 CALM      29.94F
NEWPORT NEWS   LGT RAIN  73  70  90 E8        29.94F
LANGLEY AFB    PTSUNNY   72  69  89 W8        29.94F THUNDER
FORT EUSTIS    DRIZZLE   72  72 100 E1        29.93F
WILLIAMSBURG*  PTSUNNY   79  75  89 CALM      29.96F
HR EXEC AP*      N/A     81  68  65 N6G16     30.01R THUNDER
FRANKLIN*      CLOUDY    79  69  70 N6        29.96S
WAKEFIELD      PTSUNNY   80  65  59 E3        29.93F
$$

VAZ020-022-025-037-045-022300-
WEST CENTRAL AND SOUTHWEST VIRGINIA

CITY           SKY/WX    TMP DP  RH WIND       PRES   REMARKS
STAUNTON*      CLOUDY    80  64  57 NE6       30.07S
WAYNESBORO*    FAIR      73  65  74 CALM      30.06S
HOT SPRINGS VA MOSUNNY   74  61  64 N7        30.17R
LYNCHBURG      PTSUNNY   90  61  37 N5        29.99S
DANVILLE       MOSUNNY   90  65  43 SW8       29.96S
SOUTH BOSTON*  FAIR      94  61  32 W5        29.94S
MARTINSVILLE   MOSUNNY   89  65  45 SW3       30.01F
ROANOKE        PTSUNNY   86  59  39 W9        30.02S
BLACKSBURG     MOSUNNY   84  65  53 NW5       30.10F
DUBLIN*        CLOUDY    85  65  50 N5        30.08F
MARION*        SUNNY     82  63  52 NW6       30.13S
HILLSVILLE*    MOSUNNY   79  66  63 N6        30.10F
RICHLANDS*     MOCLDY    82  21  10 NW7       30.12F
WISE*          SUNNY     82  55  39 NW3       30.14F
ABINGDON*      MOSUNNY   85  60  42 NW6       30.09S
$$

MDZ021>025-VAZ099-100-022300-
SOUTHERN MARYLAND AND THE DELMARVA PENINSULA

CITY           SKY/WX    TMP DP  RH WIND       PRES   REMARKS
PATUXENT RIVER PTSUNNY   84  72  67 CALM      29.93F
BAY BRIDGE APT   N/A     84  68  58 CALM      29.93F
LEONARDTOWN    NOT AVBL
DOVER          PTSUNNY   85  71  63 SE6       29.91F
GEORGETOWN     PTSUNNY   87  69  54 SE5       29.93F
EASTON         NOT AVBL
CAMBRIDGE      MOSUNNY   86  66  51 W3        29.92F
SALISBURY      PTSUNNY   88  69  53 VRB3      29.92F
OCEAN CITY     PTSUNNY   82  70  66 S3        29.93F
WALLOPS ISLAND CLOUDY    82  71  69 S5        29.94F
ACCOMACK*      CLOUDY    79  79 100 NE3       29.93F
$$

NCZ012>017-030>032-022300-
NORTH CENTRAL AND EASTERN NORTH CAROLINA

CITY           SKY/WX    TMP DP  RH WIND       PRES   REMARKS
ROANOKE RAPIDS FAIR      88  72  58 S9        29.93F
RALEIGH        PTSUNNY   88  68  51 W5        29.95F
ELIZABETH CITY PTSUNNY   86  68  54 S6        29.96R
AHOSKIE*       SUNNY     88  69  54 S5        29.94F
EDENTON*       MOSUNNY   88  69  54 SW3       29.95S
CURRITUCK*     LGT RAIN  75  69  81 W3        29.99S
KILL DEVIL HLS MOSUNNY   88  69  54 SE5       29.95S
MANTEO         MOSUNNY   83  72  70 S8        29.97S
CAPE HATTERAS  MOSUNNY   84  71  65 S3        29.97F
TARBORO*       FAIR      89  69  51 S3        29.95F
GOLDSBORO      NOT AVBL
WASHINGTON     SUNNY     87  70  56 SE5       29.94F
GREENVILLE     MOSUNNY   90  70  51 W3        29.97F HX  95
NEW BERN       SUNNY     89  68  49 SW3       29.96F
WILMINGTON     SUNNY     88  73  61 S7        29.95F HX  95
$$

VAZ048-022300-
ELSEWHERE

CITY           SKY/WX    TMP DP  RH WIND       PRES   REMARKS
HARRISBURG PA  MOSUNNY   89  68  49 W3        29.93S
BALTIMORE      CLOUDY    88  67  49 W8        29.93S
ANNAPOLIS      PTSUNNY   84  73  69 S5        29.92F
ANDREWS AFB    CLOUDY    83  70  66 W13       29.94F
PHILADELPHIA   MOSUNNY   92  61  35 SW10      29.91S
HENDERSON NC   MOSUNNY   88  66  48 S3        29.95F
GREENSBORO     PTSUNNY   90  65  43 NW6       29.98F
ROCKY MOUNT    PTSUNNY   91  70  49 VRB5      29.94F HX  96
$$

VAZ100-022300-
MARINE

STATION/POSITION TIME  TEMP    WIND        PRES    WAVE   SWELL
                       AIR SEA DIR/SP/G            HT/PER HT/PER
                 (UTC) (F)     (DEG/KT/KT) (MB)    (FT/S) (FT/S)
BRANDYWINE LGT   2100   76 77  160/  9/ 10 1014.0F
CAPE MAY NJ      2100   79 80  120/  6/  7 1013.5F
LEWES DE         2100   81 78  170/  6/  8 1013.7F
15NM E FENWICK I 2150   79 81  140/  4/  4 1013.7F   1/13   2/13
OCEAN-CITY-INLET 2100   82 78  190/  3/  5 1013.3F
THOMAS POINT MD  2200   82 80  220/ 10/ 10 1013.9
GOOSES REEF MD   2200   83 82  230/  4/  6 1014.5F
COVE POINT MD    2100   85     200/  3/  5 1014.6F
SOLOMONS ISLAND  2100      83                N/A
BISHOPS HEAD MD  2100   82 85  230/  5/  6 1013.1F
PINEY POINT MD   2105          190/  7/  8   N/A
POTOMAC MD       2200   83 81  230/  8/  8 1012.5F
CAMBRIDGE MD     2100   88 81  270/  3/  6 1013.1F
LEWISETTA VA     2100   83 81  220/  7/  8 1013.7F
RAPPAHANNOCK LGT 2100          190/  2/  2 1014.5F
STINGRAY PT      2200   81 81  280/  4/  6 1014.2F   0
YORK RVR RNG VA  2100   82      10/  4/ 10 1013.9S
YORKTOWN VA      2100   79 82  280/  8/ 12 1014.2R
JAMESTOWN VA     2200   76 83  260/  4/  6   N/A
DOMINION TERM VA 2100   85      60/ 10/ 13 1013.9F
KIPTOPEKE VA     2100      80  170/  7/  9   N/A
CHES BAY BRIDGE  2100   83 80  120/  6/  9 1013.8F
CAPE HENRY VA    2100   82     180/ 12/ 16   N/A
CHESAPEAKE LGHT  2100   81     180/ 15/ 17 1014.9F
WILLOUBY STN VA  2100   83      60/  8/ 10 1015.0F
CAPE HENRY BUOY  2128      81                N/A     2/ 9
1ST LANDING BUOY 2200      79              1013.9S   1/ 3
CAPE CHARLES BUO 2126      80                N/A     1/13   2/13
OFFSHORE WE BUOY 2111      80                N/A     2/ 9   2/ 9
64NM E OF VA BCH 2150   80 81  210/ 10/ 10 1014.1F   2/ 6   2/ 6
DUCK PIER NC     2100   83 82  140/ 10/ 11 1013.7F
44100 DUCK FRF   2124      81                N/A     1/13
44056 DUCK FRF   2111      82                N/A     1/ 9
OREGON INLET NC  2100   83 81  170/  5/  7 1014.8F
HATTERAS NC      2100   84 82  170/  3/  5 1015.0F
DIAMOND SHLS NC  2150   83 86  320/  2/  2 1014.9F   2/ 9   2/ 9
CAPE LOOKOUT NC  2200   82     170/  6/  7 1014.4F
$$



USA.gov is the U.S. government's official web portal to all federal, state and local government web resources and services.